Regional Weather Roundup
Issued by NWS Raleigh/Durham, NC

Home | Current Version | Previous Version | Text Only | Print | Product List | Glossary On
Versions: 1 2 3 4 5 6 7 8 9 10 11 12 13 14 15 16 17 18 19 20 21 22 23 24 25 26 27
000
ASUS42 KRAH 310610
RWRRAH
NORTH CAROLINA WEATHER ROUNDUP
NATIONAL WEATHER SERVICE RALEIGH NC
200 AM EDT SAT JUL 31 2021

NOTE: "FAIR" INDICATES FEW OR NO CLOUDS BELOW 12,000 FEET WITH NO
SIGNIFICANT WEATHER AND/OR OBSTRUCTIONS TO VISIBILITY.

NCZ001-053-055-056-065-067-310700-
WESTERN NORTH CAROLINA

CITY           SKY/WX    TMP DP  RH WIND       PRES   REMARKS
ASHEVILLE      CLEAR     69  67  93 CALM      30.08S
JEFFERSON      CLEAR     66  61  84 CALM      30.11F
MORGANTON      CLEAR     73  69  89 CALM      30.04F
HICKORY        CLEAR     75  70  84 NW3       29.99F
WILKESBORO     NOT AVBL
RUTHERFORDTON  NOT AVBL
MOUNT AIRY     NOT AVBL
BOONE            N/A     66  60  81 CALM      30.12F
$$

NCZ021-022-025-041-071-084-088-310700-
CENTRAL NORTH CAROLINA

CITY           SKY/WX    TMP DP  RH WIND       PRES   REMARKS
CHARLOTTE      PTCLDY    75  73  93 N5        29.97S
GREENSBORO     MOCLDY    78  65  63 N6        29.97S
WINSTON-SALEM  CLEAR     75  66  73 N7        30.00R
RALEIGH-DURHAM PTCLDY    79  68  69 CALM      29.93S
FORT BRAGG     PTCLDY    80  80  99 W5        29.90S
FAYETTEVILLE   PTCLDY    80  76  87 SW6       29.91S
BURLINGTON     PTCLDY    80  64  58 N8        29.95S
ROXBORO        CLEAR     73  70  88 NE6       29.98R
HENDERSON      NOT AVBL
LOUISBURG      PTCLDY    73  72  94 N5        29.96S FOG
LAURINBURG     CLEAR     76  74  93 CALM      29.93S FOG
$$

NCZ011-015-027-028-043-044-047-080-103-310700-
NORTHEASTERN NORTH CAROLINA

CITY           SKY/WX    TMP DP  RH WIND       PRES   REMARKS
ROCKY MT-WILSO CLEAR     77  74  90 CALM      29.90F FOG
GREENVILLE     CLEAR     77  77 100 N5        29.93R
WASHINGTON     MOCLDY    79  77  93 CALM      29.91R
ELIZABETH CITY PTCLDY    76  71  85 N8        29.91F
MANTEO         MOCLDY    76  74  92 N5        29.92R
CAPE HATTERAS  PTCLDY    81  79  94 W9        29.91R
$$

NCZ078-087-090-091-093-098-101-310700-
SOUTHEASTERN NORTH CAROLINA

CITY           SKY/WX    TMP DP  RH WIND       PRES   REMARKS
GOLDSBORO      CLEAR     80  75  86 SW5       29.89S
KINSTON        CLEAR     80  78  96 SW6       29.91S FOG
KENANSVILLE    CLEAR     79  79 100 CALM      29.92S FOG
NEW BERN       CLEAR     79  78  97 SW6       29.92S
CHERRY POINT   NOT AVBL
BEAUFORT       CLEAR     83  79  88 SW14      29.91S
JACKSONVILLE   CLEAR     80  78  94 SW8       29.91S
WILMINGTON     PTCLDY    82  78  88 SW7       29.92F
$$




USA.gov is the U.S. government's official web portal to all federal, state and local government web resources and services.